CAPE
0 0 0 0 0 0 0 0 0 0 0 0 0 0 0 0 0 0 0 0 0 0 0 0 0 0 0 0 0 1 591 834 1205 997 1128 878 512 185 80 146 366 345 305 288
0 0 0 0 0 0 0 0 0 0 0 0 0 0 0 0 0 0 0 0 0 0 0 0 0 0 0 12 183 101 687 1162 1396 1451 1127 757 313 121 89 64 225 305 247 321
0 0 0 0 0 0 0 0 0 0 0 0 0 0 0 0 0 0 0 0 0 0 0 0 0 0 0 45 466 745 1183 1261 1322 1065 638 218 93 65 28 18 21 171 247 271
0 0 0 0 0 0 0 0 0 0 0 0 0 0 0 0 0 0 0 0 0 0 0 0 0 0 8 227 708 1292 1193 1266 1172 1043 661 485 177 192 63 88 29 111 152 210
0 0 0 0 0 0 0 0 0 0 0 0 0 0 0 0 0 0 0 0 0 0 0 0 0 0 90 472 760 1159 1164 1293 886 680 437 219 128 24 0 24 56 130 61 134
0 0 0 0 0 0 0 0 0 0 0 0 0 0 0 0 0 0 0 0 0 0 0 0 0 160 311 491 867 943 930 633 489 340 138 13 38 2 24 44 51 6 10 56
32 16 0 0 0 0 0 0 0 0 0 0 0 0 0 0 0 0 0 0 0 0 0 159 220 340 550 841 901 645 538 437 257 26 0 1 9 0 31 24 0 34 41 12
1 0 1 11 0 0 0 0 0 0 0 0 0 0 0 0 0 0 0 0 0 0 16 142 207 433 743 826 735 478 294 359 61 71 2 0 0 0 8 1 0 1 0 0
28 2 2 0 0 0 0 0 0 0 0 0 0 0 0 0 0 0 0 0 29 103 122 100 303 619 652 480 425 209 175 80 4 66 0 3 10 15 2 0 0 0 0 0
0 0 0 0 0 0 0 0 0 0 0 0 0 0 0 0 0 0 0 1 155 127 112 214 405 472 370 253 222 99 87 0 9 33 16 7 3 12 0 0 0 0 0 1
0 0 0 0 0 0 0 0 0 0 0 0 0 0 0 0 0 0 0 29 117 134 103 275 350 295 232 265 173 71 48 1 39 44 21 45 30 16 0 0 0 0 0 0
8 0 0 0 0 0 0 0 0 0 0 0 0 0 0 0 0 0 0 134 105 78 143 262 267 246 308 284 160 74 13 6 31 40 7 2 7 0 0 0 0 0 0 0
9 0 0 0 1 3 7 6 0 0 0 0 0 0 0 0 0 10 149 71 60 98 211 219 254 335 300 252 147 23 9 0 5 83 143 15 0 0 0 0 0 0 0 0
63 0 0 0 0 0 23 19 0 0 0 0 0 0 0 0 0 65 81 93 68 223 248 219 289 262 281 203 135 10 0 0 38 85 138 35 2 0 0 0 0 3 5 16
4 12 3 0 0 3 1 0 0 0 0 0 0 0 0 0 0 0 121 103 174 223 214 253 237 205 193 109 75 0 0 0 33 189 212 87 15 0 0 0 5 23 27 19
0 0 84 12 6 11 3 2 0 0 0 0 0 0 0 0 7 149 125 151 265 248 249 245 200 235 143 100 4 0 0 0 140 332 328 172 24 0 0 0 18 16 20 29
17 7 23 1 17 53 0 5 6 17 0 0 0 0 0 78 304 131 144 236 288 287 296 263 243 261 145 42 0 0 0 32 212 392 378 192 80 0 0 0 0 10 35 17
0 0 12 15 17 18 160 20 108 164 0 63 58 12 24 18 0 0 0 189 251 278 324 295 263 199 53 0 0 0 5 101 172 428 391 158 183 1 0 0 0 0 1 17
0 0 1 13 13 52 174 0 16 48 55 102 1 3 10 0 0 0 0 0 60 233 274 271 198 73 0 0 0 0 20 83 124 448 248 139 41 1 3 0 0 0 0 0
0 0 4 18 16 44 4 0 2 9 90 0 1 0 2 0 2 0 0 0 0 25 214 163 66 3 0 0 0 0 1 46 110 170 192 100 7 13 5 0 0 0 5 0
14 7 6 3 18 1 7 8 1 163 75 3 1 0 23 4 1 0 0 0 0 24 99 136 14 0 0 0 0 0 0 2 37 131 36 6 10 0 0 0 0 0 2 0
8 5 22 44 2 0 5 1 14 16 4 10 0 0 36 0 0 0 0 0 35 153 256 91 3 0 0 0 0 0 0 0 0 3 26 7 61 38 1 1 3 0 0 0
11 8 4 8 6 12 9 27 24 11 11 6 1 0 0 0 0 0 0 0 50 143 196 35 0 0 0 0 0 0 0 0 0 3 36 125 253 212 14 63 5 0 0 0
0 9 12 12 12 7 16 1 2 3 4 0 0 0 0 0 0 0 0 0 0 13 265 140 0 0 0 0 0 0 0 0 58 17 29 190 257 198 193 63 0 0 0 0
16 1 7 1 8 14 12 3 9 0 0 0 0 0 0 0 0 0 0 0 0 3 48 332 25 0 0 0 0 0 0 0 88 32 62 167 150 194 129 30 0 5 0 0
0 2 0 18 15 7 2 2 3 0 0 0 0 0 0 0 0 0 0 0 0 0 0 54 84 0 0 0 0 0 0 2 54 29 134 209 145 95 0 0 0 0 0 0
CIN
0 0 0 0 0 0 0 0 0 0 0 0 0 0 0 0 0 0 0 0 0 0 0 0 0 0 0 0 0 -593 -596 -696 -614 -581 -448 -476 -533 -653 -654 -578 -400 -328 -276 -258
0 0 0 0 0 0 0 0 0 0 0 0 0 0 0 0 0 0 0 0 0 0 0 0 0 0 0 -353 -412 -632 -611 -652 -552 -475 -424 -476 -570 -624 -523 -520 -387 -288 -292 -225
0 0 0 0 0 0 0 0 0 0 0 0 0 0 0 0 0 0 0 0 0 0 0 0 0 0 0 -479 -474 -558 -608 -588 -524 -570 -585 -677 -652 -598 -537 -521 -477 -354 -276 -234
0 0 0 0 0 0 0 0 0 0 0 0 0 0 0 0 0 0 0 0 0 0 0 0 0 0 -560 -595 -644 -543 -512 -513 -504 -479 -505 -455 -538 -436 -483 -420 -461 -341 -277 -211
0 0 0 0 0 0 0 0 0 0 0 0 0 0 0 0 0 0 0 0 0 0 0 0 0 0 -705 -691 -609 -498 -467 -402 -487 -509 -529 -516 -480 -494 -15 -480 -386 -281 -301 -224
0 0 0 0 0 0 0 0 0 0 0 0 0 0 0 0 0 0 0 0 0 0 0 0 0 -736 -737 -676 -521 -486 -466 -510 -541 -549 -573 -365 -459 -291 -460 -428 -358 -247 -350 -232
-8 -8 -1 0 0 0 0 0 0 0 0 0 0 0 0 0 0 0 0 0 0 0 0 -601 -676 -683 -641 -525 -477 -495 -497 -523 -560 -600 0 -124 -221 0 -403 -389 0 -246 -204 -208
-8 -3 -1 -2 0 0 0 0 0 0 0 0 0 0 0 0 0 0 0 0 0 0 -639 -692 -681 -631 -515 -461 -437 -494 -539 -508 -580 -516 -44 0 0 0 -412 -16 0 -32 0 0
-16 -8 -39 0 0 0 0 0 0 0 0 0 0 0 0 0 0 0 0 0 -370 -646 -721 -750 -594 -521 -503 -516 -514 -560 -546 -520 -459 -474 -70 -473 -358 -374 -201 0 0 0 0 0
0 0 0 0 0 0 0 0 0 0 0 0 0 0 0 0 0 0 0 -74 -541 -657 -689 -611 -528 -504 -524 -545 -544 -566 -531 0 -233 -422 -408 -400 -197 -347 0 0 0 0 0 -167
0 0 0 0 0 0 0 0 0 0 0 0 0 0 0 0 0 0 0 -397 -598 -600 -627 -572 -512 -501 -513 -477 -490 -521 -506 -240 -406 -351 -384 -331 -322 -261 0 0 0 0 0 0
-105 0 0 0 0 0 0 0 0 0 0 0 0 0 0 0 0 0 0 -476 -573 -605 -574 -537 -498 -487 -438 -425 -465 -465 -488 -453 -379 -345 -270 -244 -357 0 0 0 0 0 0 0
-27 0 0 0 -11 -12 -3 -9 0 0 0 0 0 0 0 0 0 -264 -389 -457 -515 -557 -499 -493 -465 -423 -405 -388 -417 -483 -470 0 -351 -283 -222 -388 0 0 0 0 0 0 0 0
-14 -0 0 0 0 0 -25 -49 0 0 0 0 0 0 0 0 0 -125 -341 -477 -502 -492 -475 -459 -428 -414 -390 -382 -369 -491 0 0 -359 -279 -211 -293 -156 0 0 0 0 -23 -53 -47
-20 -39 -0 0 -51 -13 0 -7 0 0 0 0 0 0 0 0 0 0 -304 -437 -452 -436 -438 -423 -441 -421 -388 -378 -385 -1 0 0 -371 -181 -183 -235 -305 0 0 0 -37 -83 -44 -57
-1 0 -14 0 -61 -66 0 -72 0 0 0 0 0 0 0 0 -63 -170 -290 -354 -394 -387 -398 -396 -407 -371 -369 -365 -121 0 0 0 -232 -116 -116 -154 -278 0 0 0 -43 -56 -63 -62
-16 -3 -3 -1 -51 -34 -2 -26 -20 -14 0 0 0 0 0 -190 -107 -259 -158 -308 -343 -348 -368 -377 -383 -352 -345 -395 0 0 0 -418 -194 -93 -95 -121 -143 0 0 0 0 -67 -69 -93
0 0 -11 -0 -0 -33 -10 -116 -70 -59 0 -67 -91 -234 -92 -267 0 0 0 -241 -293 -306 -324 -340 -350 -336 -423 0 0 0 -115 -296 -230 -93 -74 -121 -61 -22 0 0 0 0 -46 -90
0 0 -0 0 -1 -17 -10 0 -57 -109 -128 -101 -19 -128 -260 0 0 0 0 0 -305 -293 -293 -309 -339 -400 0 0 0 0 -426 -297 -235 -80 -109 -110 -133 -15 -108 0 0 0 0 0
0 0 -5 -4 0 -6 0 0 0 0 -42 0 0 0 -211 0 -0 0 0 0 0 -328 -298 -341 -377 -437 0 0 0 0 -114 -330 -208 -155 -127 -148 -220 -138 -125 0 0 0 -105 0
0 -5 -0 -0 -1 0 0 0 0 -32 -6 0 -0 0 -178 -156 -144 0 0 0 0 -405 -371 -351 -410 0 0 0 0 0 0 -141 -305 -189 -247 -299 -236 0 0 0 0 -42 -104 -19
0 0 0 0 0 0 0 0 -10 0 0 0 0 0 -188 0 0 0 0 0 -424 -317 -302 -323 -132 0 0 0 0 0 0 0 0 -376 -302 -373 -270 -193 -88 -64 -149 0 0 0
0 0 0 0 0 0 0 0 0 0 0 0 0 0 0 0 0 0 0 0 -442 -412 -324 -364 0 0 0 0 0 0 0 0 0 -360 -329 -280 -196 -181 -263 -154 -172 0 0 0
-2 -4 0 0 0 0 0 -0 -1 -0 0 0 0 0 0 0 0 0 0 0 0 -427 -360 -388 -27 0 0 0 0 0 0 0 -324 -369 -362 -252 -207 -220 -182 -209 0 0 0 0
-3 -6 -1 0 -2 -1 -2 -5 -4 0 0 0 0 0 0 0 0 0 0 0 0 -359 -420 -337 -453 0 0 0 0 0 0 0 -356 -380 -346 -277 -281 -247 -264 -146 0 -76 0 -50
-2 -2 -1 -0 -7 -6 -9 -19 -21 -3 0 0 0 0 0 0 0 0 0 0 0 0 -17 -380 -396 -10 0 0 0 0 0 -267 -410 -414 -336 -285 -302 -329 0 0 0 0 0 0
Wind_Speed
3 4 20 26 16 10 10 12 15 4 10 14 20 23 20 17 19 14 17 17 19 17 18 15 13 11 6 8 9 10 10 9 10 8 7 6 7 6 5 5 9 6 5 8
3 19 14 10 6 12 15 15 19 6 8 10 14 25 25 24 24 19 22 21 17 14 12 10 8 8 9 8 8 8 9 12 9 8 5 5 6 3 5 5 7 9 11 8
10 6 9 16 13 17 16 18 14 10 11 20 7 19 19 18 14 12 12 13 12 16 13 12 10 12 7 9 9 9 10 10 7 9 9 5 5 4 4 3 3 4 8 7
12 12 14 14 19 17 19 12 11 16 13 16 4 22 25 19 25 19 13 11 16 13 9 10 9 6 9 7 6 8 8 10 10 10 9 12 5 4 3 4 3 4 6 6
12 9 4 13 16 15 19 14 11 13 11 14 14 7 26 11 18 18 18 20 19 14 11 13 12 8 6 8 8 9 10 9 8 9 11 8 6 3 3 3 6 5 4 6
13 10 15 13 14 12 8 10 17 17 4 9 12 14 20 15 18 11 12 11 12 10 10 1 5 12 9 7 8 9 10 7 9 9 9 9 9 6 6 5 5 4 3 3
3 9 11 11 12 11 7 1 4 4 6 17 13 11 19 12 7 11 16 15 14 9 5 8 10 11 12 11 11 9 11 8 9 10 9 9 9 9 9 7 5 5 3 2
7 5 9 2 2 6 7 10 6 7 5 8 14 13 11 16 25 25 17 17 6 3 5 8 10 11 12 12 10 10 11 9 10 9 9 8 8 6 5 5 4 4 3 3
1 5 2 7 8 2 5 10 7 5 14 2 8 9 9 19 25 22 18 5 6 6 9 11 11 12 12 10 9 10 10 9 9 9 8 7 7 8 6 7 5 3 4 3
6 5 5 6 5 3 7 4 4 4 8 7 7 6 12 8 10 10 11 10 7 6 12 12 11 11 10 9 9 9 9 10 8 9 7 7 8 7 6 6 6 5 4 4
3 1 5 5 5 9 3 2 3 4 4 11 4 7 6 13 12 17 8 15 15 13 13 13 12 10 11 10 9 8 8 9 8 8 7 7 6 7 6 6 5 6 4 5
1 2 4 10 15 13 4 6 5 2 7 5 4 17 12 16 9 19 13 15 12 12 13 13 13 13 12 11 10 8 7 8 7 7 7 7 7 7 6 6 6 5 5 4
5 3 4 10 2 7 6 3 1 4 6 16 6 10 3 8 7 5 19 16 14 14 15 13 13 13 12 10 10 9 7 8 7 6 7 7 7 7 6 6 6 5 5 4
2 4 6 6 8 8 8 8 7 3 4 10 16 16 22 22 8 7 6 17 18 17 17 15 13 13 12 11 11 10 8 8 7 7 8 8 7 7 6 5 4 5 3 4
7 5 10 12 17 17 18 17 12 8 6 4 7 18 18 18 13 12 13 17 18 18 17 16 15 13 12 11 10 10 8 7 7 8 9 7 5 6 6 5 3 1 5 3
6 5 5 15 18 19 20 13 13 11 12 11 16 27 12 10 9 6 18 20 19 18 18 17 16 15 14 13 11 11 9 7 8 9 9 7 7 6 6 5 4 5 3 5
8 5 3 8 13 3 4 12 10 5 7 6 7 12 16 7 2 8 8 19 21 19 19 18 17 16 14 13 11 10 8 7 7 9 9 9 8 6 6 6 5 5 5 6
9 5 4 7 6 5 5 11 5 7 8 1 13 15 5 8 7 7 6 9 18 17 18 17 15 14 13 12 9 8 10 9 9 8 11 7 9 7 6 6 6 4 3 6
14 8 3 3 3 3 3 10 9 11 5 3 14 8 8 5 7 10 2 5 8 18 16 16 15 15 13 13 11 12 10 10 10 10 10 8 9 7 7 6 6 4 4 5
9 9 3 3 4 2 1 9 16 12 5 8 14 11 3 20 12 8 6 4 6 8 13 14 15 14 14 11 12 14 11 10 9 10 10 8 9 7 7 7 6 3 4 5
3 3 7 7 5 3 4 14 16 6 3 18 16 10 7 6 2 4 6 7 8 7 14 13 15 16 15 13 13 13 12 11 10 12 10 8 7 9 8 6 3 4 5 5
2 3 1 4 1 5 15 15 8 6 7 12 15 11 8 8 9 4 7 5 9 9 16 16 14 13 12 13 14 12 12 10 7 10 10 8 8 7 6 7 4 6 6 7
3 4 2 2 1 4 12 11 6 8 9 12 14 17 14 14 9 8 6 1 7 6 8 12 14 12 11 11 13 13 11 8 8 10 9 9 7 6 6 7 6 4 5 7
3 3 4 5 5 1 9 13 12 9 11 15 14 13 15 10 7 5 5 7 8 8 7 7 8 12 11 8 11 13 9 9 12 11 11 10 10 7 6 4 4 5 5 5
3 6 6 4 5 7 11 13 14 18 16 17 15 10 13 14 7 5 7 11 9 8 5 6 10 9 11 9 10 9 9 12 11 12 11 9 7 8 6 4 3 4 4 7
3 2 0 3 5 3 6 9 12 13 18 25 21 10 11 11 10 9 11 10 9 10 10 8 7 10 7 7 8 9 10 13 13 11 10 9 8 6 5 6 3 6 3 2
Wind_Direction
244 185 221 217 225 285 276 263 252 252 200 213 242 256 264 254 255 258 263 266 261 252 247 251 250 242 227 226 193 190 168 166 149 156 152 145 153 140 124 137 144 145 171 190
227 233 248 269 260 227 248 267 268 307 297 230 245 257 260 262 262 251 256 256 254 252 257 263 240 219 196 193 202 172 172 160 164 163 156 117 132 109 138 147 162 176 181 184
222 224 220 239 249 248 244 236 261 268 305 291 305 284 272 265 263 263 257 258 261 257 258 260 229 218 190 185 181 168 155 141 128 116 111 89 76 76 96 120 147 192 182 170
255 247 254 259 229 237 249 251 253 245 254 260 201 281 264 270 267 267 250 250 254 262 245 240 244 180 184 174 125 110 118 127 131 131 116 137 133 140 181 165 152 154 161 166
231 284 239 238 246 230 251 251 244 229 237 247 243 275 269 224 249 249 253 247 258 262 240 236 231 184 165 142 129 121 121 124 128 118 128 132 124 127 132 104 117 126 118 126
230 210 249 255 261 262 287 231 235 259 240 243 214 219 278 244 245 243 247 253 263 253 257 191 163 141 130 116 110 113 117 119 115 114 126 130 135 131 116 108 113 123 110 117
293 250 238 235 247 256 230 235 233 244 200 235 176 221 238 267 237 241 251 254 247 260 197 147 142 138 129 127 123 118 122 119 117 114 114 122 121 125 125 138 142 139 130 193
208 248 215 162 187 215 185 179 189 196 193 243 259 235 248 235 253 259 246 253 274 229 145 136 132 126 123 126 123 120 122 118 116 115 114 107 109 117 122 137 143 159 180 161
111 252 38 301 297 184 309 217 205 284 275 359 234 284 299 269 271 265 261 229 182 147 130 126 122 123 125 123 122 126 123 116 117 118 110 109 113 113 126 130 131 146 129 156
17 309 265 306 349 270 201 291 164 201 211 236 260 256 236 264 263 269 247 173 157 142 132 129 126 128 121 123 126 114 117 124 122 117 116 121 125 122 129 130 130 140 152 153
116 21 310 339 209 230 310 226 220 166 195 219 288 249 232 254 267 273 231 172 158 160 142 134 130 126 126 124 125 121 122 121 120 126 128 126 137 127 130 136 150 153 172 173
119 148 264 252 249 261 235 247 148 190 256 265 227 254 266 290 304 291 170 161 148 142 139 133 133 133 133 135 133 133 128 129 140 145 129 137 132 129 141 157 159 160 151 181
355 281 307 315 317 236 252 179 3 231 229 244 234 261 229 264 325 359 145 147 142 138 138 137 136 141 142 144 143 140 143 151 153 138 135 132 137 142 149 161 160 169 172 185
50 242 225 225 273 327 285 292 300 314 253 248 244 285 266 270 309 110 250 144 149 149 145 144 144 147 147 149 154 151 159 155 161 151 145 147 156 152 157 166 175 174 209 219
162 232 259 266 268 267 262 261 255 246 257 261 293 277 278 269 294 217 168 148 145 149 150 150 150 151 151 152 154 156 167 153 158 150 144 156 148 141 152 162 175 216 183 158
177 251 235 279 266 261 242 234 241 242 262 253 251 275 276 288 283 114 167 155 151 154 154 154 152 154 156 161 160 161 168 155 154 155 147 148 139 149 154 154 127 97 141 113
194 210 237 270 337 176 227 240 219 249 214 224 246 276 300 349 19 96 201 161 156 158 158 160 159 160 161 167 158 166 155 148 142 149 145 153 143 152 165 154 139 121 126 108
238 199 205 279 277 232 103 42 359 236 193 255 293 258 151 100 29 17 360 215 154 161 161 164 158 160 163 161 155 140 146 150 144 149 154 160 148 162 161 149 142 136 129 132
215 220 265 247 281 319 62 30 355 1 293 348 337 356 133 124 20 295 105 302 193 166 166 166 159 160 158 158 153 144 151 151 150 157 159 170 149 156 157 160 152 153 138 132
191 205 189 284 284 292 118 319 326 306 244 360 344 324 16 144 174 248 324 301 298 152 157 159 158 154 153 155 153 146 153 159 167 162 167 173 155 159 162 159 164 155 144 138
25 333 241 252 268 287 33 289 297 202 6 319 326 297 354 75 132 258 297 313 298 167 147 147 153 157 159 152 154 155 155 169 182 162 160 162 154 167 161 146 132 147 134 123
343 272 236 230 258 277 354 346 24 321 286 305 319 330 63 23 6 353 332 296 314 134 144 150 151 155 155 155 156 161 166 178 161 156 154 142 135 142 142 134 127 119 127 129
2 327 287 25 228 354 295 277 329 344 327 308 335 322 80 39 353 15 276 156 356 44 121 146 144 147 158 160 164 162 187 144 147 148 143 142 131 129 143 134 136 117 122 136
296 347 3 338 7 226 335 354 353 349 330 341 308 282 84 83 338 332 308 46 32 15 92 101 131 149 168 164 169 172 171 133 146 147 145 147 143 143 138 122 130 131 142 139
311 349 331 293 314 328 343 352 326 324 329 321 329 23 58 78 45 346 16 25 32 41 83 134 159 163 176 170 173 175 157 139 147 150 148 152 147 155 135 98 140 159 186 178
328 287 20 300 307 281 304 334 286 313 343 329 332 2 37 57 39 22 27 13 37 29 30 44 161 157 172 169 182 180 151 146 147 151 155 158 156 157 150 140 118 50 46 321